Location: Oklahoma City
(35.4680°N, 97.5160°W)
Time: 00:24:46
(UTC-05:00)

ISS - Visible Passes

Search period start: 25 September 2016 00:00
Search period end: 05 October 2016 00:00
Orbit: 400 x 410 km, 51.6° (Epoch: 25 September)

Date Brightness Start Highest point End Pass type
(mag) Time Alt. Az. Time Alt. Az. Time Alt. Az.
25 Sep -2.0 05:40:30 32° SSE 05:40:30 32° SSE 05:42:27 10° SE visible
26 Sep -0.6 21:21:33 10° SW 21:22:14 15° SW 21:22:14 15° SW visible
27 Sep -3.1 20:29:39 10° SSW 20:32:46 45° SE 20:33:15 41° ESE visible
28 Sep -1.9 19:38:17 10° S 19:40:49 21° SE 19:43:22 10° ENE visible
28 Sep -1.4 21:14:15 10° W 21:16:46 29° NW 21:16:46 29° NW visible
29 Sep -2.8 20:21:48 10° WSW 20:25:00 59° NW 20:27:21 17° NE visible
30 Sep -0.6 21:07:39 10° WNW 21:09:39 15° NNW 21:10:26 14° NNW visible
01 Oct -1.2 20:14:36 10° W 20:17:20 24° NNW 20:20:05 10° NNE visible
03 Oct -0.5 20:08:10 10° NW 20:09:47 13° NNW 20:11:25 10° N visible
